Index of /20260428/WXO-DD/model_rdps/10km/12/029
Name Last modified Size Description
Parent Directory -
20260428T12Z_MSC_RDPS_AbsoluteVorticity_IsbL-0250_RLatLon0.09_PT029H.grib2 2026-04-28 14:48 632K
20260428T12Z_MSC_RDPS_AbsoluteVorticity_IsbL-0500_RLatLon0.09_PT029H.grib2 2026-04-28 14:48 577K
20260428T12Z_MSC_RDPS_AbsoluteVorticity_IsbL-0700_RLatLon0.09_PT029H.grib2 2026-04-28 14:48 746K
20260428T12Z_MSC_RDPS_AbsoluteVorticity_IsbL-0850_RLatLon0.09_PT029H.grib2 2026-04-28 14:48 777K
20260428T12Z_MSC_RDPS_AirTemp_AGL-120m_RLatLon0.09_PT029H.grib2 2026-04-28 14:48 395K
20260428T12Z_MSC_RDPS_AirTemp_AGL-2m_RLatLon0.09_PT029H.grib2 2026-04-28 14:48 630K
20260428T12Z_MSC_RDPS_AirTemp_AGL-40m_RLatLon0.09_PT029H.grib2 2026-04-28 14:48 404K
20260428T12Z_MSC_RDPS_AirTemp_AGL-80m_RLatLon0.09_PT029H.grib2 2026-04-28 14:48 399K
20260428T12Z_MSC_RDPS_AirTemp_IsbL-0001_RLatLon0.09_PT029H.grib2 2026-04-28 14:48 287K
20260428T12Z_MSC_RDPS_AirTemp_IsbL-0005_RLatLon0.09_PT029H.grib2 2026-04-28 14:48 294K
20260428T12Z_MSC_RDPS_AirTemp_IsbL-0010_RLatLon0.09_PT029H.grib2 2026-04-28 14:48 305K
20260428T12Z_MSC_RDPS_AirTemp_IsbL-0020_RLatLon0.09_PT029H.grib2 2026-04-28 14:48 320K
20260428T12Z_MSC_RDPS_AirTemp_IsbL-0030_RLatLon0.09_PT029H.grib2 2026-04-28 14:48 341K
20260428T12Z_MSC_RDPS_AirTemp_IsbL-0050_RLatLon0.09_PT029H.grib2 2026-04-28 14:48 316K
20260428T12Z_MSC_RDPS_AirTemp_IsbL-0100_RLatLon0.09_PT029H.grib2 2026-04-28 14:48 432K
20260428T12Z_MSC_RDPS_AirTemp_IsbL-0150_RLatLon0.09_PT029H.grib2 2026-04-28 14:48 428K
20260428T12Z_MSC_RDPS_AirTemp_IsbL-0175_RLatLon0.09_PT029H.grib2 2026-04-28 14:48 418K
20260428T12Z_MSC_RDPS_AirTemp_IsbL-0200_RLatLon0.09_PT029H.grib2 2026-04-28 14:48 423K
20260428T12Z_MSC_RDPS_AirTemp_IsbL-0225_RLatLon0.09_PT029H.grib2 2026-04-28 14:48 425K
20260428T12Z_MSC_RDPS_AirTemp_IsbL-0250_RLatLon0.09_PT029H.grib2 2026-04-28 14:48 436K
20260428T12Z_MSC_RDPS_AirTemp_IsbL-0275_RLatLon0.09_PT029H.grib2 2026-04-28 14:48 415K
20260428T12Z_MSC_RDPS_AirTemp_IsbL-0300_RLatLon0.09_PT029H.grib2 2026-04-28 14:48 421K
20260428T12Z_MSC_RDPS_AirTemp_IsbL-0350_RLatLon0.09_PT029H.grib2 2026-04-28 14:48 432K
20260428T12Z_MSC_RDPS_AirTemp_IsbL-0400_RLatLon0.09_PT029H.grib2 2026-04-28 14:48 430K
20260428T12Z_MSC_RDPS_AirTemp_IsbL-0450_RLatLon0.09_PT029H.grib2 2026-04-28 14:48 434K
20260428T12Z_MSC_RDPS_AirTemp_IsbL-0500_RLatLon0.09_PT029H.grib2 2026-04-28 14:48 409K
20260428T12Z_MSC_RDPS_AirTemp_IsbL-0550_RLatLon0.09_PT029H.grib2 2026-04-28 14:48 426K
20260428T12Z_MSC_RDPS_AirTemp_IsbL-0600_RLatLon0.09_PT029H.grib2 2026-04-28 14:48 444K
20260428T12Z_MSC_RDPS_AirTemp_IsbL-0650_RLatLon0.09_PT029H.grib2 2026-04-28 14:48 460K
20260428T12Z_MSC_RDPS_AirTemp_IsbL-0700_RLatLon0.09_PT029H.grib2 2026-04-28 14:48 378K
20260428T12Z_MSC_RDPS_AirTemp_IsbL-0750_RLatLon0.09_PT029H.grib2 2026-04-28 14:48 413K
20260428T12Z_MSC_RDPS_AirTemp_IsbL-0800_RLatLon0.09_PT029H.grib2 2026-04-28 14:48 458K
20260428T12Z_MSC_RDPS_AirTemp_IsbL-0850_RLatLon0.09_PT029H.grib2 2026-04-28 14:48 508K
20260428T12Z_MSC_RDPS_AirTemp_IsbL-0875_RLatLon0.09_PT029H.grib2 2026-04-28 14:48 527K
20260428T12Z_MSC_RDPS_AirTemp_IsbL-0900_RLatLon0.09_PT029H.grib2 2026-04-28 14:48 536K
20260428T12Z_MSC_RDPS_AirTemp_IsbL-0925_RLatLon0.09_PT029H.grib2 2026-04-28 14:48 534K
20260428T12Z_MSC_RDPS_AirTemp_IsbL-0950_RLatLon0.09_PT029H.grib2 2026-04-28 14:48 535K
20260428T12Z_MSC_RDPS_AirTemp_IsbL-0970_RLatLon0.09_PT029H.grib2 2026-04-28 14:48 527K
20260428T12Z_MSC_RDPS_AirTemp_IsbL-0985_RLatLon0.09_PT029H.grib2 2026-04-28 14:48 515K
20260428T12Z_MSC_RDPS_AirTemp_IsbL-1000_RLatLon0.09_PT029H.grib2 2026-04-28 14:48 511K
20260428T12Z_MSC_RDPS_AirTemp_IsbL-1015_RLatLon0.09_PT029H.grib2 2026-04-28 14:48 509K
20260428T12Z_MSC_RDPS_Albedo_Sfc_RLatLon0.09_PT029H.grib2 2026-04-28 14:48 159K
20260428T12Z_MSC_RDPS_CAPE_Sfc_RLatLon0.09_PT029H.grib2 2026-04-28 14:48 1.7M
20260428T12Z_MSC_RDPS_CIN_Sfc_RLatLon0.09_PT029H.grib2 2026-04-28 14:48 1.1M
20260428T12Z_MSC_RDPS_CloudWater_EAtm_RLatLon0.09_PT029H.grib2 2026-04-28 14:48 219K
20260428T12Z_MSC_RDPS_ConvectivePrecip-Accum_Sfc_RLatLon0.09_PT029H.grib2 2026-04-28 14:48 882K
20260428T12Z_MSC_RDPS_DewPointDepression_AGL-2m_RLatLon0.09_PT029H.grib2 2026-04-28 14:48 420K
20260428T12Z_MSC_RDPS_DewPointDepression_IsbL-0001_RLatLon0.09_PT029H.grib2 2026-04-28 14:48 193
20260428T12Z_MSC_RDPS_DewPointDepression_IsbL-0005_RLatLon0.09_PT029H.grib2 2026-04-28 14:48 193
20260428T12Z_MSC_RDPS_DewPointDepression_IsbL-0010_RLatLon0.09_PT029H.grib2 2026-04-28 14:48 193
20260428T12Z_MSC_RDPS_DewPointDepression_IsbL-0020_RLatLon0.09_PT029H.grib2 2026-04-28 14:48 193
20260428T12Z_MSC_RDPS_DewPointDepression_IsbL-0030_RLatLon0.09_PT029H.grib2 2026-04-28 14:48 193
20260428T12Z_MSC_RDPS_DewPointDepression_IsbL-0050_RLatLon0.09_PT029H.grib2 2026-04-28 14:48 83K
20260428T12Z_MSC_RDPS_DewPointDepression_IsbL-0100_RLatLon0.09_PT029H.grib2 2026-04-28 14:48 132K
20260428T12Z_MSC_RDPS_DewPointDepression_IsbL-0150_RLatLon0.09_PT029H.grib2 2026-04-28 14:48 151K
20260428T12Z_MSC_RDPS_DewPointDepression_IsbL-0175_RLatLon0.09_PT029H.grib2 2026-04-28 14:48 179K
20260428T12Z_MSC_RDPS_DewPointDepression_IsbL-0200_RLatLon0.09_PT029H.grib2 2026-04-28 14:48 218K
20260428T12Z_MSC_RDPS_DewPointDepression_IsbL-0225_RLatLon0.09_PT029H.grib2 2026-04-28 14:48 266K
20260428T12Z_MSC_RDPS_DewPointDepression_IsbL-0250_RLatLon0.09_PT029H.grib2 2026-04-28 14:48 306K
20260428T12Z_MSC_RDPS_DewPointDepression_IsbL-0275_RLatLon0.09_PT029H.grib2 2026-04-28 14:48 313K
20260428T12Z_MSC_RDPS_DewPointDepression_IsbL-0300_RLatLon0.09_PT029H.grib2 2026-04-28 14:48 333K
20260428T12Z_MSC_RDPS_DewPointDepression_IsbL-0350_RLatLon0.09_PT029H.grib2 2026-04-28 14:48 338K
20260428T12Z_MSC_RDPS_DewPointDepression_IsbL-0400_RLatLon0.09_PT029H.grib2 2026-04-28 14:48 344K
20260428T12Z_MSC_RDPS_DewPointDepression_IsbL-0450_RLatLon0.09_PT029H.grib2 2026-04-28 14:48 349K
20260428T12Z_MSC_RDPS_DewPointDepression_IsbL-0500_RLatLon0.09_PT029H.grib2 2026-04-28 14:48 355K
20260428T12Z_MSC_RDPS_DewPointDepression_IsbL-0550_RLatLon0.09_PT029H.grib2 2026-04-28 14:48 367K
20260428T12Z_MSC_RDPS_DewPointDepression_IsbL-0600_RLatLon0.09_PT029H.grib2 2026-04-28 14:48 375K
20260428T12Z_MSC_RDPS_DewPointDepression_IsbL-0650_RLatLon0.09_PT029H.grib2 2026-04-28 14:48 381K
20260428T12Z_MSC_RDPS_DewPointDepression_IsbL-0700_RLatLon0.09_PT029H.grib2 2026-04-28 14:48 392K
20260428T12Z_MSC_RDPS_DewPointDepression_IsbL-0750_RLatLon0.09_PT029H.grib2 2026-04-28 14:48 414K
20260428T12Z_MSC_RDPS_DewPointDepression_IsbL-0800_RLatLon0.09_PT029H.grib2 2026-04-28 14:48 445K
20260428T12Z_MSC_RDPS_DewPointDepression_IsbL-0850_RLatLon0.09_PT029H.grib2 2026-04-28 14:48 473K
20260428T12Z_MSC_RDPS_DewPointDepression_IsbL-0875_RLatLon0.09_PT029H.grib2 2026-04-28 14:48 472K
20260428T12Z_MSC_RDPS_DewPointDepression_IsbL-0900_RLatLon0.09_PT029H.grib2 2026-04-28 14:48 463K
20260428T12Z_MSC_RDPS_DewPointDepression_IsbL-0925_RLatLon0.09_PT029H.grib2 2026-04-28 14:48 453K
20260428T12Z_MSC_RDPS_DewPointDepression_IsbL-0950_RLatLon0.09_PT029H.grib2 2026-04-28 14:48 448K
20260428T12Z_MSC_RDPS_DewPointDepression_IsbL-0970_RLatLon0.09_PT029H.grib2 2026-04-28 14:48 440K
20260428T12Z_MSC_RDPS_DewPointDepression_IsbL-0985_RLatLon0.09_PT029H.grib2 2026-04-28 14:48 435K
20260428T12Z_MSC_RDPS_DewPointDepression_IsbL-1000_RLatLon0.09_PT029H.grib2 2026-04-28 14:48 431K
20260428T12Z_MSC_RDPS_DewPointDepression_IsbL-1015_RLatLon0.09_PT029H.grib2 2026-04-28 14:48 425K
20260428T12Z_MSC_RDPS_DewPoint_AGL-2m_RLatLon0.09_PT029H.grib2 2026-04-28 14:48 404K
20260428T12Z_MSC_RDPS_DownwardLongwaveRadiationFlux-Accum_Sfc_RLatLon0.09_PT029H.grib2 2026-04-28 14:48 469K
20260428T12Z_MSC_RDPS_DownwardShortwaveRadiationFlux-Accum_NTAtm_RLatLon0.09_PT029H.grib2 2026-04-28 14:48 126K
20260428T12Z_MSC_RDPS_DownwardShortwaveRadiationFlux-Accum_Sfc_RLatLon0.09_PT029H.grib2 2026-04-28 14:48 538K
20260428T12Z_MSC_RDPS_FreezingRain-Accum1h_Sfc_RLatLon0.09_PT029H.grib2 2026-04-28 14:48 12K
20260428T12Z_MSC_RDPS_FreezingRain-Accum_Sfc_RLatLon0.09_PT029H.grib2 2026-04-28 14:48 129K
20260428T12Z_MSC_RDPS_GeopotentialHeight_IsbL-0001_RLatLon0.09_PT029H.grib2 2026-04-28 14:48 247K
20260428T12Z_MSC_RDPS_GeopotentialHeight_IsbL-0005_RLatLon0.09_PT029H.grib2 2026-04-28 14:48 313K
20260428T12Z_MSC_RDPS_GeopotentialHeight_IsbL-0010_RLatLon0.09_PT029H.grib2 2026-04-28 14:48 342K
20260428T12Z_MSC_RDPS_GeopotentialHeight_IsbL-0020_RLatLon0.09_PT029H.grib2 2026-04-28 14:48 309K
20260428T12Z_MSC_RDPS_GeopotentialHeight_IsbL-0030_RLatLon0.09_PT029H.grib2 2026-04-28 14:48 310K
20260428T12Z_MSC_RDPS_GeopotentialHeight_IsbL-0050_RLatLon0.09_PT029H.grib2 2026-04-28 14:48 343K
20260428T12Z_MSC_RDPS_GeopotentialHeight_IsbL-0100_RLatLon0.09_PT029H.grib2 2026-04-28 14:48 287K
20260428T12Z_MSC_RDPS_GeopotentialHeight_IsbL-0150_RLatLon0.09_PT029H.grib2 2026-04-28 14:48 231K
20260428T12Z_MSC_RDPS_GeopotentialHeight_IsbL-0175_RLatLon0.09_PT029H.grib2 2026-04-28 14:48 266K
20260428T12Z_MSC_RDPS_GeopotentialHeight_IsbL-0200_RLatLon0.09_PT029H.grib2 2026-04-28 14:48 269K
20260428T12Z_MSC_RDPS_GeopotentialHeight_IsbL-0225_RLatLon0.09_PT029H.grib2 2026-04-28 14:48 270K
20260428T12Z_MSC_RDPS_GeopotentialHeight_IsbL-0250_RLatLon0.09_PT029H.grib2 2026-04-28 14:48 270K
20260428T12Z_MSC_RDPS_GeopotentialHeight_IsbL-0275_RLatLon0.09_PT029H.grib2 2026-04-28 14:48 269K
20260428T12Z_MSC_RDPS_GeopotentialHeight_IsbL-0300_RLatLon0.09_PT029H.grib2 2026-04-28 14:48 269K
20260428T12Z_MSC_RDPS_GeopotentialHeight_IsbL-0350_RLatLon0.09_PT029H.grib2 2026-04-28 14:48 234K
20260428T12Z_MSC_RDPS_GeopotentialHeight_IsbL-0400_RLatLon0.09_PT029H.grib2 2026-04-28 14:48 230K
20260428T12Z_MSC_RDPS_GeopotentialHeight_IsbL-0450_RLatLon0.09_PT029H.grib2 2026-04-28 14:48 298K
20260428T12Z_MSC_RDPS_GeopotentialHeight_IsbL-0500_RLatLon0.09_PT029H.grib2 2026-04-28 14:48 292K
20260428T12Z_MSC_RDPS_GeopotentialHeight_IsbL-0550_RLatLon0.09_PT029H.grib2 2026-04-28 14:48 289K
20260428T12Z_MSC_RDPS_GeopotentialHeight_IsbL-0600_RLatLon0.09_PT029H.grib2 2026-04-28 14:48 287K
20260428T12Z_MSC_RDPS_GeopotentialHeight_IsbL-0650_RLatLon0.09_PT029H.grib2 2026-04-28 14:48 256K
20260428T12Z_MSC_RDPS_GeopotentialHeight_IsbL-0700_RLatLon0.09_PT029H.grib2 2026-04-28 14:48 255K
20260428T12Z_MSC_RDPS_GeopotentialHeight_IsbL-0750_RLatLon0.09_PT029H.grib2 2026-04-28 14:48 340K
20260428T12Z_MSC_RDPS_GeopotentialHeight_IsbL-0800_RLatLon0.09_PT029H.grib2 2026-04-28 14:48 348K
20260428T12Z_MSC_RDPS_GeopotentialHeight_IsbL-0850_RLatLon0.09_PT029H.grib2 2026-04-28 14:48 359K
20260428T12Z_MSC_RDPS_GeopotentialHeight_IsbL-0875_RLatLon0.09_PT029H.grib2 2026-04-28 14:48 360K
20260428T12Z_MSC_RDPS_GeopotentialHeight_IsbL-0900_RLatLon0.09_PT029H.grib2 2026-04-28 14:48 367K
20260428T12Z_MSC_RDPS_GeopotentialHeight_IsbL-0925_RLatLon0.09_PT029H.grib2 2026-04-28 14:48 370K
20260428T12Z_MSC_RDPS_GeopotentialHeight_IsbL-0950_RLatLon0.09_PT029H.grib2 2026-04-28 14:48 374K
20260428T12Z_MSC_RDPS_GeopotentialHeight_IsbL-0970_RLatLon0.09_PT029H.grib2 2026-04-28 14:48 381K
20260428T12Z_MSC_RDPS_GeopotentialHeight_IsbL-0985_RLatLon0.09_PT029H.grib2 2026-04-28 14:48 391K
20260428T12Z_MSC_RDPS_GeopotentialHeight_IsbL-1000_RLatLon0.09_PT029H.grib2 2026-04-28 14:48 403K
20260428T12Z_MSC_RDPS_GeopotentialHeight_IsbL-1015_RLatLon0.09_PT029H.grib2 2026-04-28 14:48 418K
20260428T12Z_MSC_RDPS_Humidex_Sfc_RLatLon0.09_PT029H.grib2 2026-04-28 14:48 2.4M
20260428T12Z_MSC_RDPS_IcePellets-Accum1h_Sfc_RLatLon0.09_PT029H.grib2 2026-04-28 14:48 2.2K
20260428T12Z_MSC_RDPS_IcePellets-Accum_Sfc_RLatLon0.09_PT029H.grib2 2026-04-28 14:48 22K
20260428T12Z_MSC_RDPS_KIndex_Sfc_RLatLon0.09_PT029H.grib2 2026-04-28 14:48 2.5M
20260428T12Z_MSC_RDPS_LatentHeatNetFlux_Sfc_RLatLon0.09_PT029H.grib2 2026-04-28 14:48 304K
20260428T12Z_MSC_RDPS_LiftedIndex-MU-VT_IsbL-0500_RLatLon0.09_PT029H.grib2 2026-04-28 14:48 2.4M
20260428T12Z_MSC_RDPS_NetLongwaveRadiationFlux-Accum_Sfc_RLatLon0.09_PT029H.grib2 2026-04-28 14:48 606K
20260428T12Z_MSC_RDPS_NetShortwaveRadiationFlux-Accum_Sfc_RLatLon0.09_PT029H.grib2 2026-04-28 14:48 538K
20260428T12Z_MSC_RDPS_PlanetaryBoundaryLayerHeight_Sfc_RLatLon0.09_PT029H.grib2 2026-04-28 14:48 1.0M
20260428T12Z_MSC_RDPS_Precip-Accum1h_Sfc_RLatLon0.09_PT029H.grib2 2026-04-28 14:48 1.2M
20260428T12Z_MSC_RDPS_Precip-Accum_Sfc_RLatLon0.09_PT029H.grib2 2026-04-28 14:48 1.8M
20260428T12Z_MSC_RDPS_PrecipRate_Sfc_RLatLon0.09_PT029H.grib2 2026-04-28 14:48 181K
20260428T12Z_MSC_RDPS_PrecipType-Instant_Sfc_RLatLon0.09_PT029H.grib2 2026-04-28 14:48 570K
20260428T12Z_MSC_RDPS_Pressure-Trend3h_Sfc_RLatLon0.09_PT029H.grib2 2026-04-28 14:48 1.2M
20260428T12Z_MSC_RDPS_Pressure_MSL_RLatLon0.09_PT029H.grib2 2026-04-28 14:48 331K
20260428T12Z_MSC_RDPS_Pressure_PVU-1.5_RLatLon0.09_PT029H.grib2 2026-04-28 14:48 2.5M
20260428T12Z_MSC_RDPS_Pressure_PVU-1_RLatLon0.09_PT029H.grib2 2026-04-28 14:48 2.4M
20260428T12Z_MSC_RDPS_Pressure_PVU-2_RLatLon0.09_PT029H.grib2 2026-04-28 14:48 2.4M
20260428T12Z_MSC_RDPS_Pressure_Sfc_RLatLon0.09_PT029H.grib2 2026-04-28 14:48 501K
20260428T12Z_MSC_RDPS_RadiativeTemp_Sfc_RLatLon0.09_PT029H.grib2 2026-04-28 14:48 324K
20260428T12Z_MSC_RDPS_Rain-Accum1h_Sfc_RLatLon0.09_PT029H.grib2 2026-04-28 14:48 579K
20260428T12Z_MSC_RDPS_Rain-Accum_Sfc_RLatLon0.09_PT029H.grib2 2026-04-28 14:48 1.4M
20260428T12Z_MSC_RDPS_RelativeHumidity_AGL-2m_RLatLon0.09_PT029H.grib2 2026-04-28 14:48 1.0M
20260428T12Z_MSC_RDPS_RelativeHumidity_IsbL-0010_RLatLon0.09_PT029H.grib2 2026-04-28 14:48 642K
20260428T12Z_MSC_RDPS_RelativeHumidity_IsbL-0020_RLatLon0.09_PT029H.grib2 2026-04-28 14:48 651K
20260428T12Z_MSC_RDPS_RelativeHumidity_IsbL-0030_RLatLon0.09_PT029H.grib2 2026-04-28 14:48 610K
20260428T12Z_MSC_RDPS_RelativeHumidity_IsbL-0050_RLatLon0.09_PT029H.grib2 2026-04-28 14:48 372K
20260428T12Z_MSC_RDPS_RelativeHumidity_IsbL-0100_RLatLon0.09_PT029H.grib2 2026-04-28 14:48 285K
20260428T12Z_MSC_RDPS_RelativeHumidity_IsbL-0150_RLatLon0.09_PT029H.grib2 2026-04-28 14:48 416K
20260428T12Z_MSC_RDPS_RelativeHumidity_IsbL-0175_RLatLon0.09_PT029H.grib2 2026-04-28 14:48 485K
20260428T12Z_MSC_RDPS_RelativeHumidity_IsbL-0200_RLatLon0.09_PT029H.grib2 2026-04-28 14:48 557K
20260428T12Z_MSC_RDPS_RelativeHumidity_IsbL-0225_RLatLon0.09_PT029H.grib2 2026-04-28 14:48 626K
20260428T12Z_MSC_RDPS_RelativeHumidity_IsbL-0250_RLatLon0.09_PT029H.grib2 2026-04-28 14:48 701K
20260428T12Z_MSC_RDPS_RelativeHumidity_IsbL-0275_RLatLon0.09_PT029H.grib2 2026-04-28 14:48 732K
20260428T12Z_MSC_RDPS_RelativeHumidity_IsbL-0300_RLatLon0.09_PT029H.grib2 2026-04-28 14:48 779K
20260428T12Z_MSC_RDPS_RelativeHumidity_IsbL-0350_RLatLon0.09_PT029H.grib2 2026-04-28 14:48 796K
20260428T12Z_MSC_RDPS_RelativeHumidity_IsbL-0400_RLatLon0.09_PT029H.grib2 2026-04-28 14:48 803K
20260428T12Z_MSC_RDPS_RelativeHumidity_IsbL-0450_RLatLon0.09_PT029H.grib2 2026-04-28 14:48 803K
20260428T12Z_MSC_RDPS_RelativeHumidity_IsbL-0500_RLatLon0.09_PT029H.grib2 2026-04-28 14:48 810K
20260428T12Z_MSC_RDPS_RelativeHumidity_IsbL-0550_RLatLon0.09_PT029H.grib2 2026-04-28 14:48 825K
20260428T12Z_MSC_RDPS_RelativeHumidity_IsbL-0600_RLatLon0.09_PT029H.grib2 2026-04-28 14:48 849K
20260428T12Z_MSC_RDPS_RelativeHumidity_IsbL-0650_RLatLon0.09_PT029H.grib2 2026-04-28 14:48 851K
20260428T12Z_MSC_RDPS_RelativeHumidity_IsbL-0700_RLatLon0.09_PT029H.grib2 2026-04-28 14:48 875K
20260428T12Z_MSC_RDPS_RelativeHumidity_IsbL-0750_RLatLon0.09_PT029H.grib2 2026-04-28 14:48 921K
20260428T12Z_MSC_RDPS_RelativeHumidity_IsbL-0800_RLatLon0.09_PT029H.grib2 2026-04-28 14:48 1.0M
20260428T12Z_MSC_RDPS_RelativeHumidity_IsbL-0850_RLatLon0.09_PT029H.grib2 2026-04-28 14:48 1.0M
20260428T12Z_MSC_RDPS_RelativeHumidity_IsbL-0875_RLatLon0.09_PT029H.grib2 2026-04-28 14:48 1.1M
20260428T12Z_MSC_RDPS_RelativeHumidity_IsbL-0900_RLatLon0.09_PT029H.grib2 2026-04-28 14:48 1.1M
20260428T12Z_MSC_RDPS_RelativeHumidity_IsbL-0925_RLatLon0.09_PT029H.grib2 2026-04-28 14:48 1.1M
20260428T12Z_MSC_RDPS_RelativeHumidity_IsbL-0950_RLatLon0.09_PT029H.grib2 2026-04-28 14:48 1.1M
20260428T12Z_MSC_RDPS_RelativeHumidity_IsbL-0970_RLatLon0.09_PT029H.grib2 2026-04-28 14:48 1.0M
20260428T12Z_MSC_RDPS_RelativeHumidity_IsbL-0985_RLatLon0.09_PT029H.grib2 2026-04-28 14:48 1.0M
20260428T12Z_MSC_RDPS_RelativeHumidity_IsbL-1000_RLatLon0.09_PT029H.grib2 2026-04-28 14:48 1.0M
20260428T12Z_MSC_RDPS_RelativeHumidity_IsbL-1015_RLatLon0.09_PT029H.grib2 2026-04-28 14:48 1.0M
20260428T12Z_MSC_RDPS_Runoff-Accum_Sfc_RLatLon0.09_PT029H.grib2 2026-04-28 14:48 51K
20260428T12Z_MSC_RDPS_SWEATIndex_Sfc_RLatLon0.09_PT029H.grib2 2026-04-28 14:48 2.4M
20260428T12Z_MSC_RDPS_SeeingIndex_EAtm_RLatLon0.09_PT029H.grib2 2026-04-28 14:48 1.0M
20260428T12Z_MSC_RDPS_SensibleHeatNetFlux_Sfc_RLatLon0.09_PT029H.grib2 2026-04-28 14:48 364K
20260428T12Z_MSC_RDPS_ShowalterIndex_IsbL-0500_RLatLon0.09_PT029H.grib2 2026-04-28 14:48 2.6M
20260428T12Z_MSC_RDPS_SkyTransparencyIndex_EAtm_RLatLon0.09_PT029H.grib2 2026-04-28 14:48 685K
20260428T12Z_MSC_RDPS_Snow-Accum1h_Sfc_RLatLon0.09_PT029H.grib2 2026-04-28 14:48 532K
20260428T12Z_MSC_RDPS_Snow-Accum_Sfc_RLatLon0.09_PT029H.grib2 2026-04-28 14:48 748K
20260428T12Z_MSC_RDPS_SnowDensity_Sfc_RLatLon0.09_PT029H.grib2 2026-04-28 14:48 181K
20260428T12Z_MSC_RDPS_SnowDepth_Sfc_RLatLon0.09_PT029H.grib2 2026-04-28 14:48 692K
20260428T12Z_MSC_RDPS_SoilTemp_DBS-0to10cm_RLatLon0.09_PT029H.grib2 2026-04-28 14:48 227K
20260428T12Z_MSC_RDPS_SoilTemp_Sfc_RLatLon0.09_PT029H.grib2 2026-04-28 14:48 293K
20260428T12Z_MSC_RDPS_SoilVolumetricIceContent_Sfc_RLatLon0.09_PT029H.grib2 2026-04-28 14:48 165K
20260428T12Z_MSC_RDPS_SoilVolumetricWaterContent_DBS-0to10cm_RLatLon0.09_PT029H.grib2 2026-04-28 14:48 265K
20260428T12Z_MSC_RDPS_SoilVolumetricWaterContent_DBS-0to1cm_RLatLon0.09_PT029H.grib2 2026-04-28 14:48 335K
20260428T12Z_MSC_RDPS_SpecificHumidity_AGL-120m_RLatLon0.09_PT029H.grib2 2026-04-28 14:48 496K
20260428T12Z_MSC_RDPS_SpecificHumidity_AGL-2m_RLatLon0.09_PT029H.grib2 2026-04-28 14:48 663K
20260428T12Z_MSC_RDPS_SpecificHumidity_AGL-40m_RLatLon0.09_PT029H.grib2 2026-04-28 14:48 500K
20260428T12Z_MSC_RDPS_SpecificHumidity_AGL-80m_RLatLon0.09_PT029H.grib2 2026-04-28 14:48 498K
20260428T12Z_MSC_RDPS_SpecificHumidity_IsbL-0001_RLatLon0.09_PT029H.grib2 2026-04-28 14:48 393K
20260428T12Z_MSC_RDPS_SpecificHumidity_IsbL-0005_RLatLon0.09_PT029H.grib2 2026-04-28 14:48 360K
20260428T12Z_MSC_RDPS_SpecificHumidity_IsbL-0010_RLatLon0.09_PT029H.grib2 2026-04-28 14:48 396K
20260428T12Z_MSC_RDPS_SpecificHumidity_IsbL-0020_RLatLon0.09_PT029H.grib2 2026-04-28 14:48 391K
20260428T12Z_MSC_RDPS_SpecificHumidity_IsbL-0030_RLatLon0.09_PT029H.grib2 2026-04-28 14:48 374K
20260428T12Z_MSC_RDPS_SpecificHumidity_IsbL-0050_RLatLon0.09_PT029H.grib2 2026-04-28 14:48 462K
20260428T12Z_MSC_RDPS_SpecificHumidity_IsbL-0100_RLatLon0.09_PT029H.grib2 2026-04-28 14:48 452K
20260428T12Z_MSC_RDPS_SpecificHumidity_IsbL-0150_RLatLon0.09_PT029H.grib2 2026-04-28 14:48 483K
20260428T12Z_MSC_RDPS_SpecificHumidity_IsbL-0175_RLatLon0.09_PT029H.grib2 2026-04-28 14:48 439K
20260428T12Z_MSC_RDPS_SpecificHumidity_IsbL-0200_RLatLon0.09_PT029H.grib2 2026-04-28 14:48 454K
20260428T12Z_MSC_RDPS_SpecificHumidity_IsbL-0225_RLatLon0.09_PT029H.grib2 2026-04-28 14:48 458K
20260428T12Z_MSC_RDPS_SpecificHumidity_IsbL-0250_RLatLon0.09_PT029H.grib2 2026-04-28 14:48 565K
20260428T12Z_MSC_RDPS_SpecificHumidity_IsbL-0275_RLatLon0.09_PT029H.grib2 2026-04-28 14:48 482K
20260428T12Z_MSC_RDPS_SpecificHumidity_IsbL-0300_RLatLon0.09_PT029H.grib2 2026-04-28 14:48 582K
20260428T12Z_MSC_RDPS_SpecificHumidity_IsbL-0350_RLatLon0.09_PT029H.grib2 2026-04-28 14:48 574K
20260428T12Z_MSC_RDPS_SpecificHumidity_IsbL-0400_RLatLon0.09_PT029H.grib2 2026-04-28 14:48 526K
20260428T12Z_MSC_RDPS_SpecificHumidity_IsbL-0450_RLatLon0.09_PT029H.grib2 2026-04-28 14:48 576K
20260428T12Z_MSC_RDPS_SpecificHumidity_IsbL-0500_RLatLon0.09_PT029H.grib2 2026-04-28 14:48 511K
20260428T12Z_MSC_RDPS_SpecificHumidity_IsbL-0550_RLatLon0.09_PT029H.grib2 2026-04-28 14:48 583K
20260428T12Z_MSC_RDPS_SpecificHumidity_IsbL-0600_RLatLon0.09_PT029H.grib2 2026-04-28 14:48 635K
20260428T12Z_MSC_RDPS_SpecificHumidity_IsbL-0650_RLatLon0.09_PT029H.grib2 2026-04-28 14:48 552K
20260428T12Z_MSC_RDPS_SpecificHumidity_IsbL-0700_RLatLon0.09_PT029H.grib2 2026-04-28 14:48 595K
20260428T12Z_MSC_RDPS_SpecificHumidity_IsbL-0750_RLatLon0.09_PT029H.grib2 2026-04-28 14:48 650K
20260428T12Z_MSC_RDPS_SpecificHumidity_IsbL-0800_RLatLon0.09_PT029H.grib2 2026-04-28 14:48 730K
20260428T12Z_MSC_RDPS_SpecificHumidity_IsbL-0850_RLatLon0.09_PT029H.grib2 2026-04-28 14:48 803K
20260428T12Z_MSC_RDPS_SpecificHumidity_IsbL-0875_RLatLon0.09_PT029H.grib2 2026-04-28 14:48 827K
20260428T12Z_MSC_RDPS_SpecificHumidity_IsbL-0900_RLatLon0.09_PT029H.grib2 2026-04-28 14:48 839K
20260428T12Z_MSC_RDPS_SpecificHumidity_IsbL-0925_RLatLon0.09_PT029H.grib2 2026-04-28 14:48 843K
20260428T12Z_MSC_RDPS_SpecificHumidity_IsbL-0950_RLatLon0.09_PT029H.grib2 2026-04-28 14:48 706K
20260428T12Z_MSC_RDPS_SpecificHumidity_IsbL-0970_RLatLon0.09_PT029H.grib2 2026-04-28 14:48 697K
20260428T12Z_MSC_RDPS_SpecificHumidity_IsbL-0985_RLatLon0.09_PT029H.grib2 2026-04-28 14:48 690K
20260428T12Z_MSC_RDPS_SpecificHumidity_IsbL-1000_RLatLon0.09_PT029H.grib2 2026-04-28 14:48 683K
20260428T12Z_MSC_RDPS_SpecificHumidity_IsbL-1015_RLatLon0.09_PT029H.grib2 2026-04-28 14:48 674K
20260428T12Z_MSC_RDPS_SpecificHumidity_Sfc_RLatLon0.09_PT029H.grib2 2026-04-28 14:48 334K
20260428T12Z_MSC_RDPS_StormRelativeHelicity_EtaL-10000_RLatLon0.09_PT029H.grib2 2026-04-28 14:48 1.1M
20260428T12Z_MSC_RDPS_StormSeverityIndex_EtaL-10000_RLatLon0.09_PT029H.grib2 2026-04-28 14:48 1.2M
20260428T12Z_MSC_RDPS_Thickness_IsbL-0850to0700_RLatLon0.09_PT029H.grib2 2026-04-28 14:48 180K
20260428T12Z_MSC_RDPS_Thickness_IsbL-1000to0500_RLatLon0.09_PT029H.grib2 2026-04-28 14:48 203K
20260428T12Z_MSC_RDPS_Thickness_IsbL-1000to0850_RLatLon0.09_PT029H.grib2 2026-04-28 14:48 191K
20260428T12Z_MSC_RDPS_TotalCloudCover_Sfc_RLatLon0.09_PT029H.grib2 2026-04-28 14:48 640K
20260428T12Z_MSC_RDPS_TotalTotalsIndex_Sfc_RLatLon0.09_PT029H.grib2 2026-04-28 14:48 2.4M
20260428T12Z_MSC_RDPS_UVIndex-ClearSky_Sfc_RLatLon0.09_PT029H.grib2 2026-04-28 14:48 222K
20260428T12Z_MSC_RDPS_UVIndex_Sfc_RLatLon0.09_PT029H.grib2 2026-04-28 14:48 503K
20260428T12Z_MSC_RDPS_UpwardLongwaveRadiationFlux_NTAtm_RLatLon0.09_PT029H.grib2 2026-04-28 14:48 500K
20260428T12Z_MSC_RDPS_UpwardShortwaveRadiationFlux_NTAtm_RLatLon0.09_PT029H.grib2 2026-04-28 14:48 537K
20260428T12Z_MSC_RDPS_VerticalVelocity_IsbL-0250_RLatLon0.09_PT029H.grib2 2026-04-28 14:48 588K
20260428T12Z_MSC_RDPS_VerticalVelocity_IsbL-0500_RLatLon0.09_PT029H.grib2 2026-04-28 14:48 548K
20260428T12Z_MSC_RDPS_VerticalVelocity_IsbL-0700_RLatLon0.09_PT029H.grib2 2026-04-28 14:48 593K
20260428T12Z_MSC_RDPS_VerticalVelocity_IsbL-0850_RLatLon0.09_PT029H.grib2 2026-04-28 14:48 695K
20260428T12Z_MSC_RDPS_VerticalWindShear_EtaL-6500_RLatLon0.09_PT029H.grib2 2026-04-28 14:48 1.2M
20260428T12Z_MSC_RDPS_WindChill_Sfc_RLatLon0.09_PT029H.grib2 2026-04-28 14:48 1.1M
20260428T12Z_MSC_RDPS_WindDir_AGL-10m_RLatLon0.09_PT029H.grib2 2026-04-28 14:48 968K
20260428T12Z_MSC_RDPS_WindDir_AGL-120m_RLatLon0.09_PT029H.grib2 2026-04-28 14:48 615K
20260428T12Z_MSC_RDPS_WindDir_AGL-40m_RLatLon0.09_PT029H.grib2 2026-04-28 14:48 636K
20260428T12Z_MSC_RDPS_WindDir_AGL-80m_RLatLon0.09_PT029H.grib2 2026-04-28 14:48 624K
20260428T12Z_MSC_RDPS_WindDir_IsbL-0001_RLatLon0.09_PT029H.grib2 2026-04-28 14:48 303K
20260428T12Z_MSC_RDPS_WindDir_IsbL-0005_RLatLon0.09_PT029H.grib2 2026-04-28 14:48 364K
20260428T12Z_MSC_RDPS_WindDir_IsbL-0010_RLatLon0.09_PT029H.grib2 2026-04-28 14:48 365K
20260428T12Z_MSC_RDPS_WindDir_IsbL-0020_RLatLon0.09_PT029H.grib2 2026-04-28 14:48 400K
20260428T12Z_MSC_RDPS_WindDir_IsbL-0030_RLatLon0.09_PT029H.grib2 2026-04-28 14:48 411K
20260428T12Z_MSC_RDPS_WindDir_IsbL-0050_RLatLon0.09_PT029H.grib2 2026-04-28 14:48 444K
20260428T12Z_MSC_RDPS_WindDir_IsbL-0100_RLatLon0.09_PT029H.grib2 2026-04-28 14:48 430K
20260428T12Z_MSC_RDPS_WindDir_IsbL-0150_RLatLon0.09_PT029H.grib2 2026-04-28 14:48 424K
20260428T12Z_MSC_RDPS_WindDir_IsbL-0175_RLatLon0.09_PT029H.grib2 2026-04-28 14:48 442K
20260428T12Z_MSC_RDPS_WindDir_IsbL-0200_RLatLon0.09_PT029H.grib2 2026-04-28 14:48 453K
20260428T12Z_MSC_RDPS_WindDir_IsbL-0225_RLatLon0.09_PT029H.grib2 2026-04-28 14:48 457K
20260428T12Z_MSC_RDPS_WindDir_IsbL-0250_RLatLon0.09_PT029H.grib2 2026-04-28 14:48 461K
20260428T12Z_MSC_RDPS_WindDir_IsbL-0275_RLatLon0.09_PT029H.grib2 2026-04-28 14:48 485K
20260428T12Z_MSC_RDPS_WindDir_IsbL-0300_RLatLon0.09_PT029H.grib2 2026-04-28 14:48 489K
20260428T12Z_MSC_RDPS_WindDir_IsbL-0350_RLatLon0.09_PT029H.grib2 2026-04-28 14:48 510K
20260428T12Z_MSC_RDPS_WindDir_IsbL-0400_RLatLon0.09_PT029H.grib2 2026-04-28 14:48 525K
20260428T12Z_MSC_RDPS_WindDir_IsbL-0450_RLatLon0.09_PT029H.grib2 2026-04-28 14:48 534K
20260428T12Z_MSC_RDPS_WindDir_IsbL-0500_RLatLon0.09_PT029H.grib2 2026-04-28 14:48 546K
20260428T12Z_MSC_RDPS_WindDir_IsbL-0550_RLatLon0.09_PT029H.grib2 2026-04-28 14:48 564K
20260428T12Z_MSC_RDPS_WindDir_IsbL-0600_RLatLon0.09_PT029H.grib2 2026-04-28 14:48 590K
20260428T12Z_MSC_RDPS_WindDir_IsbL-0650_RLatLon0.09_PT029H.grib2 2026-04-28 14:48 632K
20260428T12Z_MSC_RDPS_WindDir_IsbL-0700_RLatLon0.09_PT029H.grib2 2026-04-28 14:48 673K
20260428T12Z_MSC_RDPS_WindDir_IsbL-0750_RLatLon0.09_PT029H.grib2 2026-04-28 14:48 719K
20260428T12Z_MSC_RDPS_WindDir_IsbL-0800_RLatLon0.09_PT029H.grib2 2026-04-28 14:48 783K
20260428T12Z_MSC_RDPS_WindDir_IsbL-0850_RLatLon0.09_PT029H.grib2 2026-04-28 14:48 860K
20260428T12Z_MSC_RDPS_WindDir_IsbL-0875_RLatLon0.09_PT029H.grib2 2026-04-28 14:48 886K
20260428T12Z_MSC_RDPS_WindDir_IsbL-0900_RLatLon0.09_PT029H.grib2 2026-04-28 14:48 902K
20260428T12Z_MSC_RDPS_WindDir_IsbL-0925_RLatLon0.09_PT029H.grib2 2026-04-28 14:48 911K
20260428T12Z_MSC_RDPS_WindDir_IsbL-0950_RLatLon0.09_PT029H.grib2 2026-04-28 14:48 909K
20260428T12Z_MSC_RDPS_WindDir_IsbL-0970_RLatLon0.09_PT029H.grib2 2026-04-28 14:48 920K
20260428T12Z_MSC_RDPS_WindDir_IsbL-0985_RLatLon0.09_PT029H.grib2 2026-04-28 14:48 929K
20260428T12Z_MSC_RDPS_WindDir_IsbL-1000_RLatLon0.09_PT029H.grib2 2026-04-28 14:48 942K
20260428T12Z_MSC_RDPS_WindDir_IsbL-1015_RLatLon0.09_PT029H.grib2 2026-04-28 14:48 959K
20260428T12Z_MSC_RDPS_WindGust-Max_AGL-10m_RLatLon0.09_PT029H.grib2 2026-04-28 14:48 1.0M
20260428T12Z_MSC_RDPS_WindGust-Min_AGL-10m_RLatLon0.09_PT029H.grib2 2026-04-28 14:48 1.0M
20260428T12Z_MSC_RDPS_WindGust_AGL-10m_RLatLon0.09_PT029H.grib2 2026-04-28 14:48 1.0M
20260428T12Z_MSC_RDPS_WindSpeed_AGL-10m_RLatLon0.09_PT029H.grib2 2026-04-28 14:48 840K
20260428T12Z_MSC_RDPS_WindSpeed_AGL-120m_RLatLon0.09_PT029H.grib2 2026-04-28 14:48 547K
20260428T12Z_MSC_RDPS_WindSpeed_AGL-40m_RLatLon0.09_PT029H.grib2 2026-04-28 14:48 539K
20260428T12Z_MSC_RDPS_WindSpeed_AGL-80m_RLatLon0.09_PT029H.grib2 2026-04-28 14:48 536K
20260428T12Z_MSC_RDPS_WindSpeed_IsbL-0001_RLatLon0.09_PT029H.grib2 2026-04-28 14:48 339K
20260428T12Z_MSC_RDPS_WindSpeed_IsbL-0005_RLatLon0.09_PT029H.grib2 2026-04-28 14:48 297K
20260428T12Z_MSC_RDPS_WindSpeed_IsbL-0010_RLatLon0.09_PT029H.grib2 2026-04-28 14:48 400K
20260428T12Z_MSC_RDPS_WindSpeed_IsbL-0020_RLatLon0.09_PT029H.grib2 2026-04-28 14:48 326K
20260428T12Z_MSC_RDPS_WindSpeed_IsbL-0030_RLatLon0.09_PT029H.grib2 2026-04-28 14:48 324K
20260428T12Z_MSC_RDPS_WindSpeed_IsbL-0050_RLatLon0.09_PT029H.grib2 2026-04-28 14:48 352K
20260428T12Z_MSC_RDPS_WindSpeed_IsbL-0100_RLatLon0.09_PT029H.grib2 2026-04-28 14:48 486K
20260428T12Z_MSC_RDPS_WindSpeed_IsbL-0150_RLatLon0.09_PT029H.grib2 2026-04-28 14:48 387K
20260428T12Z_MSC_RDPS_WindSpeed_IsbL-0175_RLatLon0.09_PT029H.grib2 2026-04-28 14:48 435K
20260428T12Z_MSC_RDPS_WindSpeed_IsbL-0200_RLatLon0.09_PT029H.grib2 2026-04-28 14:48 454K
20260428T12Z_MSC_RDPS_WindSpeed_IsbL-0225_RLatLon0.09_PT029H.grib2 2026-04-28 14:48 461K
20260428T12Z_MSC_RDPS_WindSpeed_IsbL-0250_RLatLon0.09_PT029H.grib2 2026-04-28 14:48 464K
20260428T12Z_MSC_RDPS_WindSpeed_IsbL-0275_RLatLon0.09_PT029H.grib2 2026-04-28 14:48 482K
20260428T12Z_MSC_RDPS_WindSpeed_IsbL-0300_RLatLon0.09_PT029H.grib2 2026-04-28 14:48 479K
20260428T12Z_MSC_RDPS_WindSpeed_IsbL-0350_RLatLon0.09_PT029H.grib2 2026-04-28 14:48 491K
20260428T12Z_MSC_RDPS_WindSpeed_IsbL-0400_RLatLon0.09_PT029H.grib2 2026-04-28 14:48 473K
20260428T12Z_MSC_RDPS_WindSpeed_IsbL-0450_RLatLon0.09_PT029H.grib2 2026-04-28 14:48 471K
20260428T12Z_MSC_RDPS_WindSpeed_IsbL-0500_RLatLon0.09_PT029H.grib2 2026-04-28 14:48 588K
20260428T12Z_MSC_RDPS_WindSpeed_IsbL-0550_RLatLon0.09_PT029H.grib2 2026-04-28 14:48 586K
20260428T12Z_MSC_RDPS_WindSpeed_IsbL-0600_RLatLon0.09_PT029H.grib2 2026-04-28 14:48 593K
20260428T12Z_MSC_RDPS_WindSpeed_IsbL-0650_RLatLon0.09_PT029H.grib2 2026-04-28 14:48 612K
20260428T12Z_MSC_RDPS_WindSpeed_IsbL-0700_RLatLon0.09_PT029H.grib2 2026-04-28 14:48 634K
20260428T12Z_MSC_RDPS_WindSpeed_IsbL-0750_RLatLon0.09_PT029H.grib2 2026-04-28 14:48 708K
20260428T12Z_MSC_RDPS_WindSpeed_IsbL-0800_RLatLon0.09_PT029H.grib2 2026-04-28 14:48 755K
20260428T12Z_MSC_RDPS_WindSpeed_IsbL-0850_RLatLon0.09_PT029H.grib2 2026-04-28 14:48 813K
20260428T12Z_MSC_RDPS_WindSpeed_IsbL-0875_RLatLon0.09_PT029H.grib2 2026-04-28 14:48 834K
20260428T12Z_MSC_RDPS_WindSpeed_IsbL-0900_RLatLon0.09_PT029H.grib2 2026-04-28 14:48 846K
20260428T12Z_MSC_RDPS_WindSpeed_IsbL-0925_RLatLon0.09_PT029H.grib2 2026-04-28 14:48 856K
20260428T12Z_MSC_RDPS_WindSpeed_IsbL-0950_RLatLon0.09_PT029H.grib2 2026-04-28 14:48 849K
20260428T12Z_MSC_RDPS_WindSpeed_IsbL-0970_RLatLon0.09_PT029H.grib2 2026-04-28 14:48 853K
20260428T12Z_MSC_RDPS_WindSpeed_IsbL-0985_RLatLon0.09_PT029H.grib2 2026-04-28 14:48 851K
20260428T12Z_MSC_RDPS_WindSpeed_IsbL-1000_RLatLon0.09_PT029H.grib2 2026-04-28 14:48 848K
20260428T12Z_MSC_RDPS_WindSpeed_IsbL-1015_RLatLon0.09_PT029H.grib2 2026-04-28 14:48 840K
20260428T12Z_MSC_RDPS_WindU_AGL-10m_RLatLon0.09_PT029H.grib2 2026-04-28 14:48 434K
20260428T12Z_MSC_RDPS_WindU_AGL-120m_RLatLon0.09_PT029H.grib2 2026-04-28 14:48 417K
20260428T12Z_MSC_RDPS_WindU_AGL-40m_RLatLon0.09_PT029H.grib2 2026-04-28 14:48 536K
20260428T12Z_MSC_RDPS_WindU_AGL-80m_RLatLon0.09_PT029H.grib2 2026-04-28 14:48 418K
20260428T12Z_MSC_RDPS_WindU_IsbL-0001_RLatLon0.09_PT029H.grib2 2026-04-28 14:48 296K
20260428T12Z_MSC_RDPS_WindU_IsbL-0005_RLatLon0.09_PT029H.grib2 2026-04-28 14:48 290K
20260428T12Z_MSC_RDPS_WindU_IsbL-0010_RLatLon0.09_PT029H.grib2 2026-04-28 14:48 300K
20260428T12Z_MSC_RDPS_WindU_IsbL-0020_RLatLon0.09_PT029H.grib2 2026-04-28 14:48 355K
20260428T12Z_MSC_RDPS_WindU_IsbL-0030_RLatLon0.09_PT029H.grib2 2026-04-28 14:48 354K
20260428T12Z_MSC_RDPS_WindU_IsbL-0050_RLatLon0.09_PT029H.grib2 2026-04-28 14:48 380K
20260428T12Z_MSC_RDPS_WindU_IsbL-0100_RLatLon0.09_PT029H.grib2 2026-04-28 14:48 343K
20260428T12Z_MSC_RDPS_WindU_IsbL-0150_RLatLon0.09_PT029H.grib2 2026-04-28 14:48 402K
20260428T12Z_MSC_RDPS_WindU_IsbL-0175_RLatLon0.09_PT029H.grib2 2026-04-28 14:48 427K
20260428T12Z_MSC_RDPS_WindU_IsbL-0200_RLatLon0.09_PT029H.grib2 2026-04-28 14:48 445K
20260428T12Z_MSC_RDPS_WindU_IsbL-0225_RLatLon0.09_PT029H.grib2 2026-04-28 14:48 350K
20260428T12Z_MSC_RDPS_WindU_IsbL-0250_RLatLon0.09_PT029H.grib2 2026-04-28 14:48 352K
20260428T12Z_MSC_RDPS_WindU_IsbL-0275_RLatLon0.09_PT029H.grib2 2026-04-28 14:48 366K
20260428T12Z_MSC_RDPS_WindU_IsbL-0300_RLatLon0.09_PT029H.grib2 2026-04-28 14:48 467K
20260428T12Z_MSC_RDPS_WindU_IsbL-0350_RLatLon0.09_PT029H.grib2 2026-04-28 14:48 478K
20260428T12Z_MSC_RDPS_WindU_IsbL-0400_RLatLon0.09_PT029H.grib2 2026-04-28 14:48 476K
20260428T12Z_MSC_RDPS_WindU_IsbL-0450_RLatLon0.09_PT029H.grib2 2026-04-28 14:48 473K
20260428T12Z_MSC_RDPS_WindU_IsbL-0500_RLatLon0.09_PT029H.grib2 2026-04-28 14:48 473K
20260428T12Z_MSC_RDPS_WindU_IsbL-0550_RLatLon0.09_PT029H.grib2 2026-04-28 14:48 455K
20260428T12Z_MSC_RDPS_WindU_IsbL-0600_RLatLon0.09_PT029H.grib2 2026-04-28 14:48 462K
20260428T12Z_MSC_RDPS_WindU_IsbL-0650_RLatLon0.09_PT029H.grib2 2026-04-28 14:48 480K
20260428T12Z_MSC_RDPS_WindU_IsbL-0700_RLatLon0.09_PT029H.grib2 2026-04-28 14:48 501K
20260428T12Z_MSC_RDPS_WindU_IsbL-0750_RLatLon0.09_PT029H.grib2 2026-04-28 14:48 528K
20260428T12Z_MSC_RDPS_WindU_IsbL-0800_RLatLon0.09_PT029H.grib2 2026-04-28 14:48 570K
20260428T12Z_MSC_RDPS_WindU_IsbL-0850_RLatLon0.09_PT029H.grib2 2026-04-28 14:48 623K
20260428T12Z_MSC_RDPS_WindU_IsbL-0875_RLatLon0.09_PT029H.grib2 2026-04-28 14:48 640K
20260428T12Z_MSC_RDPS_WindU_IsbL-0900_RLatLon0.09_PT029H.grib2 2026-04-28 14:48 648K
20260428T12Z_MSC_RDPS_WindU_IsbL-0925_RLatLon0.09_PT029H.grib2 2026-04-28 14:48 654K
20260428T12Z_MSC_RDPS_WindU_IsbL-0950_RLatLon0.09_PT029H.grib2 2026-04-28 14:48 648K
20260428T12Z_MSC_RDPS_WindU_IsbL-0970_RLatLon0.09_PT029H.grib2 2026-04-28 14:48 650K
20260428T12Z_MSC_RDPS_WindU_IsbL-0985_RLatLon0.09_PT029H.grib2 2026-04-28 14:48 788K
20260428T12Z_MSC_RDPS_WindU_IsbL-1000_RLatLon0.09_PT029H.grib2 2026-04-28 14:48 786K
20260428T12Z_MSC_RDPS_WindU_IsbL-1015_RLatLon0.09_PT029H.grib2 2026-04-28 14:48 781K
20260428T12Z_MSC_RDPS_WindV_AGL-10m_RLatLon0.09_PT029H.grib2 2026-04-28 14:48 435K
20260428T12Z_MSC_RDPS_WindV_AGL-120m_RLatLon0.09_PT029H.grib2 2026-04-28 14:48 533K
20260428T12Z_MSC_RDPS_WindV_AGL-40m_RLatLon0.09_PT029H.grib2 2026-04-28 14:48 535K
20260428T12Z_MSC_RDPS_WindV_AGL-80m_RLatLon0.09_PT029H.grib2 2026-04-28 14:48 533K
20260428T12Z_MSC_RDPS_WindV_IsbL-0001_RLatLon0.09_PT029H.grib2 2026-04-28 14:48 248K
20260428T12Z_MSC_RDPS_WindV_IsbL-0005_RLatLon0.09_PT029H.grib2 2026-04-28 14:48 289K
20260428T12Z_MSC_RDPS_WindV_IsbL-0010_RLatLon0.09_PT029H.grib2 2026-04-28 14:48 302K
20260428T12Z_MSC_RDPS_WindV_IsbL-0020_RLatLon0.09_PT029H.grib2 2026-04-28 14:48 358K
20260428T12Z_MSC_RDPS_WindV_IsbL-0030_RLatLon0.09_PT029H.grib2 2026-04-28 14:48 318K
20260428T12Z_MSC_RDPS_WindV_IsbL-0050_RLatLon0.09_PT029H.grib2 2026-04-28 14:48 346K
20260428T12Z_MSC_RDPS_WindV_IsbL-0100_RLatLon0.09_PT029H.grib2 2026-04-28 14:48 337K
20260428T12Z_MSC_RDPS_WindV_IsbL-0150_RLatLon0.09_PT029H.grib2 2026-04-28 14:48 400K
20260428T12Z_MSC_RDPS_WindV_IsbL-0175_RLatLon0.09_PT029H.grib2 2026-04-28 14:48 330K
20260428T12Z_MSC_RDPS_WindV_IsbL-0200_RLatLon0.09_PT029H.grib2 2026-04-28 14:48 344K
20260428T12Z_MSC_RDPS_WindV_IsbL-0225_RLatLon0.09_PT029H.grib2 2026-04-28 14:48 348K
20260428T12Z_MSC_RDPS_WindV_IsbL-0250_RLatLon0.09_PT029H.grib2 2026-04-28 14:48 373K
20260428T12Z_MSC_RDPS_WindV_IsbL-0275_RLatLon0.09_PT029H.grib2 2026-04-28 14:48 388K
20260428T12Z_MSC_RDPS_WindV_IsbL-0300_RLatLon0.09_PT029H.grib2 2026-04-28 14:48 385K
20260428T12Z_MSC_RDPS_WindV_IsbL-0350_RLatLon0.09_PT029H.grib2 2026-04-28 14:48 371K
20260428T12Z_MSC_RDPS_WindV_IsbL-0400_RLatLon0.09_PT029H.grib2 2026-04-28 14:48 370K
20260428T12Z_MSC_RDPS_WindV_IsbL-0450_RLatLon0.09_PT029H.grib2 2026-04-28 14:48 472K
20260428T12Z_MSC_RDPS_WindV_IsbL-0500_RLatLon0.09_PT029H.grib2 2026-04-28 14:48 471K
20260428T12Z_MSC_RDPS_WindV_IsbL-0550_RLatLon0.09_PT029H.grib2 2026-04-28 14:48 470K
20260428T12Z_MSC_RDPS_WindV_IsbL-0600_RLatLon0.09_PT029H.grib2 2026-04-28 14:48 477K
20260428T12Z_MSC_RDPS_WindV_IsbL-0650_RLatLon0.09_PT029H.grib2 2026-04-28 14:48 493K
20260428T12Z_MSC_RDPS_WindV_IsbL-0700_RLatLon0.09_PT029H.grib2 2026-04-28 14:48 513K
20260428T12Z_MSC_RDPS_WindV_IsbL-0750_RLatLon0.09_PT029H.grib2 2026-04-28 14:48 538K
20260428T12Z_MSC_RDPS_WindV_IsbL-0800_RLatLon0.09_PT029H.grib2 2026-04-28 14:48 578K
20260428T12Z_MSC_RDPS_WindV_IsbL-0850_RLatLon0.09_PT029H.grib2 2026-04-28 14:48 619K
20260428T12Z_MSC_RDPS_WindV_IsbL-0875_RLatLon0.09_PT029H.grib2 2026-04-28 14:48 637K
20260428T12Z_MSC_RDPS_WindV_IsbL-0900_RLatLon0.09_PT029H.grib2 2026-04-28 14:48 647K
20260428T12Z_MSC_RDPS_WindV_IsbL-0925_RLatLon0.09_PT029H.grib2 2026-04-28 14:48 653K
20260428T12Z_MSC_RDPS_WindV_IsbL-0950_RLatLon0.09_PT029H.grib2 2026-04-28 14:48 789K
20260428T12Z_MSC_RDPS_WindV_IsbL-0970_RLatLon0.09_PT029H.grib2 2026-04-28 14:48 792K
20260428T12Z_MSC_RDPS_WindV_IsbL-0985_RLatLon0.09_PT029H.grib2 2026-04-28 14:48 791K
20260428T12Z_MSC_RDPS_WindV_IsbL-1000_RLatLon0.09_PT029H.grib2 2026-04-28 14:48 834K
20260428T12Z_MSC_RDPS_WindV_IsbL-1015_RLatLon0.09_PT029H.grib2 2026-04-28 14:48 827K